{"data":{"norad_id":67055,"intl_designator":"2025-294AB","name":"STARLINK-35790","alt_names":[],"object_type":"PAYLOAD","status":"ACTIVE","operator":null,"country":"US","launch_date":"2025-12-11","launch_site_code":"AFETR","launch_vehicle":null,"mission":null,"orbit_class":"UNKNOWN","rcs_meters":null,"size_class":null,"mass_kg":null,"dimensions":null,"purposes":["comms"],"wikipedia_slug":null,"has_3d_model":false,"image_url":null,"decayed_at":null,"tle_current":{"epoch":"2026-05-24T23:20:15.006624Z","epoch_age_seconds":70724,"freshness":"FRESH","line1":"1 67055U 25294AB  26144.97239591  .00000698  00000+0  34872-4 0  9997","line2":"2 67055  43.0033 327.4466 0002195 262.4493  97.6109 15.27617370 26466","mean_motion":15.2761737,"eccentricity":0.0002195,"inclination_deg":43.0033,"raan_deg":327.4466,"arg_perigee_deg":262.4493,"mean_anomaly_deg":97.6109,"bstar":3.4872e-5,"rev_number":2646,"period_min":94.264442672578,"perigee_km":481.43119331032,"apogee_km":484.44320488373,"semimajor_km":6861.074199097,"source":"CELESTRAK","updated_at":"2026-05-25T13:38:21.441895Z"}}}